Theta_e
307 306 308 313 313 310 309 308 308 309 309 310 310 309 309 309 310 310 311 313 312 312 315 318 313 316 316 316 317 319 315 317 320 321 324 322 321 324 331 330 342 346 346 343 345
309 307 306 309 314 311 309 308 308 308 309 309 309 308 309 309 309 310 313 313 315 314 312 316 315 314 318 317 318 315 313 316 316 318 322 321 320 322 342 346 347 346 346 343 344
310 310 308 306 311 314 309 309 308 308 308 308 308 308 308 309 310 313 323 322 323 316 313 315 313 314 317 320 319 316 313 314 319 321 322 321 323 320 347 348 347 345 345 344 344
310 310 310 307 306 314 311 309 308 308 308 308 308 308 308 309 309 322 319 317 322 317 312 317 316 316 315 318 321 320 318 319 320 320 323 322 321 321 344 341 347 345 345 342 343
310 310 310 310 306 310 314 309 308 308 308 308 308 308 308 308 311 314 316 317 318 316 312 317 317 317 317 319 319 319 321 321 320 320 322 322 321 320 320 336 347 346 344 342 341
310 310 310 310 309 306 314 310 308 308 308 308 308 308 308 309 311 317 318 318 317 318 316 317 317 318 321 316 318 320 321 322 321 321 319 320 320 323 339 346 345 344 343 342 341
311 310 310 310 310 307 310 314 309 308 308 308 308 308 308 311 312 318 322 320 319 319 318 318 318 320 319 315 318 317 316 315 314 316 315 319 318 323 344 344 342 344 344 342 342
311 311 310 310 310 309 307 315 313 309 308 308 308 308 311 314 317 317 319 323 319 319 317 318 318 320 320 318 313 314 314 315 315 312 315 318 315 326 345 343 343 342 342 343 343
310 311 311 310 310 310 308 311 315 314 310 309 311 312 314 317 319 320 321 321 320 318 317 317 317 318 316 313 312 311 315 314 315 312 312 315 317 333 344 343 343 343 342 341 341
307 309 311 311 310 310 308 309 314 315 314 313 316 317 319 320 322 323 321 317 316 316 315 315 316 311 306 309 313 315 315 316 316 316 314 323 329 339 342 342 341 342 343 344 343
306 307 309 311 311 310 309 309 315 319 318 319 320 317 320 324 324 324 321 319 318 317 314 314 313 312 312 310 313 314 315 315 314 314 316 323 340 339 338 338 338 340 342 344 344
305 306 307 309 311 311 310 309 313 320 317 319 319 320 321 322 322 323 322 321 320 317 315 314 314 314 314 311 314 315 317 317 315 317 319 336 336 334 333 334 336 337 340 343 341
306 305 306 308 310 312 311 310 310 317 316 319 320 320 322 322 322 322 323 322 318 317 315 315 317 315 317 316 317 318 318 315 323 326 326 335 333 335 333 334 336 337 339 340 340
307 306 306 307 312 312 312 315 313 315 319 322 323 323 324 324 323 324 322 322 318 317 315 316 317 317 317 318 317 318 312 314 315 322 327 322 336 331 333 332 332 333 338 337 336
309 307 306 306 308 311 312 314 314 317 320 321 325 325 325 325 324 323 324 321 318 318 317 318 321 320 319 319 315 314 312 312 313 309 310 311 328 328 332 336 332 330 336 335 334
310 309 307 307 310 312 312 317 318 320 324 326 327 325 323 323 322 320 321 322 320 318 319 317 321 322 320 313 314 310 311 310 307 308 316 313 310 309 331 337 335 329 333 333 331
310 310 307 307 312 313 312 311 319 323 320 328 329 328 326 324 323 319 319 318 318 318 319 320 323 321 315 312 312 310 310 310 310 308 310 308 310 311 315 327 330 328 328 332 329
310 310 308 310 314 312 312 316 321 320 322 325 328 327 326 324 324 320 318 319 317 318 317 322 325 322 320 315 312 312 311 310 312 311 310 311 314 314 319 326 326 330 329 330 327
309 309 310 316 318 312 317 319 320 320 323 329 328 327 327 324 324 325 319 319 317 317 319 321 323 317 316 313 314 313 311 309 308 309 311 309 313 322 324 324 324 325 327 329 327
307 309 317 320 317 314 316 319 321 321 326 325 327 327 327 325 323 322 325 325 324 318 318 320 320 316 315 315 312 314 310 313 308 313 314 311 313 315 325 325 323 323 326 328 327
312 315 316 319 313 315 317 319 321 322 322 326 326 326 327 327 323 322 324 325 325 320 319 314 316 316 315 315 312 311 311 306 307 308 311 311 310 309 320 322 323 322 325 327 327
314 313 314 316 313 312 316 317 321 321 322 326 325 325 326 325 324 324 324 323 319 315 316 312 312 314 315 313 313 312 310 308 310 311 307 307 309 310 316 319 323 322 324 326 326
313 317 319 318 318 317 317 319 321 321 323 325 327 326 324 323 322 323 323 322 318 317 316 314 312 314 316 312 315 316 314 308 307 308 311 312 312 315 316 317 320 323 323 324 326
314 316 318 318 318 318 318 318 318 319 320 322 323 321 321 320 319 320 323 319 320 321 316 314 310 315 318 315 314 315 315 313 312 313 312 311 313 315 318 316 316 316 321 323 323
315 314 315 318 321 319 316 316 318 318 319 319 321 321 319 320 321 321 321 317 317 317 314 313 316 316 314 315 315 315 315 315 315 313 315 314 312 318 316 315 316 317 317 320 323
312 312 315 317 316 317 315 315 317 315 319 320 321 320 317 319 318 319 319 317 317 315 315 311 316 315 317 316 316 319 320 317 319 321 316 316 321 314 315 314 316 316 316 316 316
311 312 313 316 316 316 319 318 319 315 318 316 318 317 317 318 318 318 317 315 314 315 313 313 314 314 315 317 317 317 321 320 319 318 320 318 318 313 313 312 312 315 314 314 316
Wind_Speed
19 19 18 19 19 18 16 15 14 14 14 15 14 14 15 16 17 21 24 17 12 19 14 17 26 21 17 15 10 7 3 5 6 7 4 1 5 11 12 15 21 21 4 10 27
21 20 18 18 18 18 16 15 14 13 12 12 12 13 14 15 18 25 19 16 14 18 24 19 30 25 10 10 9 6 5 8 7 4 3 3 2 14 1 15 10 13 10 22 30
22 21 19 17 17 17 16 14 13 12 11 10 11 11 12 12 16 8 4 7 14 23 23 19 25 22 8 9 8 7 6 5 5 12 9 6 15 9 11 4 15 29 22 34 33
22 22 20 18 16 16 15 14 13 11 10 10 10 10 10 7 5 2 3 3 15 22 27 23 27 13 6 6 14 3 11 7 10 21 8 2 12 18 12 6 23 29 24 37 35
23 23 22 20 16 14 14 13 11 10 9 9 9 9 8 7 20 10 10 5 19 24 29 25 27 10 7 9 9 5 4 15 27 24 18 12 13 9 9 8 19 24 34 36 33
25 25 24 22 18 14 12 12 11 10 9 8 9 9 8 5 8 6 9 10 11 24 27 23 18 14 9 6 8 12 22 18 12 19 12 7 3 1 3 18 24 30 34 32 31
25 25 24 23 20 15 12 11 10 9 8 9 9 9 12 22 7 6 5 12 17 22 26 22 10 17 7 5 9 4 4 4 10 8 6 10 4 4 15 24 29 28 28 25 26
26 25 25 24 21 16 12 10 9 9 8 8 9 9 11 9 11 16 15 12 20 19 7 20 15 8 3 1 3 1 2 0 3 8 5 11 5 2 18 30 28 25 24 25 25
26 27 26 26 21 17 12 10 10 9 9 9 8 8 11 10 14 14 13 12 17 17 13 8 12 4 1 4 4 4 2 4 6 7 5 3 3 3 14 25 24 26 25 24 21
27 27 27 27 22 17 13 11 10 10 8 7 8 4 10 4 5 11 14 8 13 16 11 7 5 2 3 3 4 4 2 1 4 1 6 4 1 4 9 19 24 26 25 23 20
27 28 27 26 24 18 12 8 4 4 11 12 6 7 3 6 4 13 17 17 13 10 5 6 4 6 10 6 3 4 2 3 6 5 4 7 6 4 6 14 17 23 26 23 20
28 28 28 27 26 22 15 10 10 2 7 15 21 25 23 17 4 8 18 11 6 4 4 4 6 12 6 6 4 3 3 6 4 3 6 8 6 6 7 6 7 13 20 17 20
30 30 29 28 29 22 11 15 14 10 3 8 16 15 16 17 14 11 17 12 5 6 5 6 5 8 7 5 6 5 5 4 3 6 8 11 5 4 4 6 10 12 17 18 18
32 31 31 30 18 9 12 5 12 7 2 5 5 7 11 8 5 14 18 13 2 9 7 5 6 7 5 6 7 3 6 2 6 6 5 2 3 3 1 3 4 11 19 19 17
34 32 31 30 29 24 9 4 1 10 3 3 4 6 14 14 11 11 18 11 8 6 6 8 4 5 4 8 8 6 4 3 3 7 6 5 5 1 2 5 7 14 22 21 19
34 33 34 31 27 16 11 18 6 5 5 2 4 5 4 4 5 9 10 16 7 4 3 7 4 4 5 5 5 9 5 6 6 3 3 1 5 3 6 12 9 13 24 25 21
36 32 31 30 19 10 21 13 3 4 4 1 3 3 3 4 5 5 7 6 5 4 4 5 2 1 5 9 6 6 6 4 5 5 4 5 3 7 7 5 6 18 23 27 24
37 32 29 24 12 14 27 3 4 5 5 2 2 3 5 2 2 4 10 8 0 4 3 5 3 4 2 6 7 1 5 6 4 4 4 2 3 4 4 10 12 21 31 27 26
38 29 21 7 15 23 9 4 8 6 3 1 2 2 2 2 3 4 6 11 9 8 6 4 3 1 4 4 6 2 3 3 8 4 3 2 4 8 3 5 3 18 29 33 29
37 27 5 8 15 26 3 5 6 4 4 2 1 1 2 3 3 4 5 4 6 8 4 2 1 3 3 6 7 5 5 4 3 4 3 4 3 5 5 6 3 10 23 30 29
23 10 17 11 18 11 4 5 4 5 3 3 3 3 3 3 1 2 2 4 2 5 4 5 3 2 3 1 8 3 2 7 6 4 6 3 5 6 8 9 12 16 24 34 34
11 2 4 11 3 1 4 5 4 2 2 2 4 3 6 6 4 0 2 4 2 8 7 4 5 4 2 5 1 2 4 5 5 5 2 4 6 5 6 9 14 18 26 35 37
13 5 7 2 3 3 5 3 3 3 4 6 4 3 2 3 2 2 3 0 8 4 5 5 1 4 3 5 3 6 3 5 6 4 5 5 6 4 12 14 8 11 19 28 36
6 3 7 8 5 3 4 4 2 3 3 4 4 4 4 3 3 1 2 3 4 4 9 9 2 5 8 6 5 5 4 4 5 4 4 5 5 6 12 11 17 14 12 18 28
8 3 4 3 3 2 1 5 3 4 4 6 3 3 4 3 2 1 3 3 7 6 4 4 4 1 2 5 4 5 6 5 4 4 5 4 6 4 6 7 14 17 12 11 20
6 5 8 5 7 12 9 5 5 4 4 4 4 4 4 3 5 5 4 2 2 8 7 6 5 2 2 2 6 5 6 4 4 3 1 3 3 2 5 13 14 18 17 17 11
11 8 5 14 5 4 3 6 7 3 11 10 1 4 7 3 4 7 11 12 7 4 4 4 6 4 2 3 6 2 3 1 3 2 1 4 2 5 5 12 13 9 12 14 16
Wind_Direction
336 329 324 325 327 324 319 312 301 291 279 269 262 261 267 274 277 277 272 276 266 222 201 196 188 180 170 178 174 161 82 218 204 171 230 198 9 324 310 185 178 176 152 195 165
343 336 327 322 324 324 320 315 307 297 285 273 264 261 269 277 281 277 288 263 235 213 200 186 181 178 169 177 179 150 167 216 205 205 225 293 256 313 186 143 126 151 172 169 169
346 342 334 324 321 323 321 316 310 302 289 275 266 263 269 283 299 281 207 234 208 197 199 186 175 167 160 169 182 191 211 212 231 232 299 309 316 348 150 191 177 168 165 170 172
348 344 338 329 318 319 320 316 311 304 291 276 269 266 267 271 254 120 45 265 193 177 180 177 172 166 145 179 192 181 224 223 241 261 286 325 314 325 205 331 197 183 183 176 177
349 346 342 335 322 314 318 316 308 302 293 280 272 268 267 253 251 258 281 346 167 168 175 171 172 160 165 187 167 221 242 228 244 257 271 275 271 274 279 280 178 171 174 178 179
348 347 343 338 329 311 310 313 308 300 291 278 271 268 254 251 257 234 235 219 195 178 179 185 189 176 169 187 175 215 225 240 246 248 254 208 258 276 54 162 158 167 172 180 184
346 345 343 338 331 315 300 306 302 291 281 273 268 267 258 252 236 208 208 210 205 192 187 189 181 192 181 162 224 225 224 255 229 232 215 174 312 221 142 154 150 168 174 183 194
342 343 342 340 332 319 291 288 294 288 274 268 268 265 257 273 244 241 231 196 200 199 175 201 186 206 223 257 36 127 74 68 272 154 190 149 242 235 150 153 144 153 173 192 201
340 339 340 340 333 325 294 274 277 280 272 262 257 241 263 259 246 229 212 192 184 197 189 130 191 237 208 95 16 1 198 200 312 187 117 106 195 186 166 151 137 156 170 179 186
337 336 336 338 335 329 303 270 269 272 255 244 235 268 251 312 222 196 175 165 163 172 163 169 168 106 42 101 196 203 194 312 258 102 72 82 115 85 145 152 142 149 159 160 165
333 332 333 332 333 324 300 266 247 237 215 217 195 232 249 346 216 203 180 143 119 159 145 180 120 201 213 200 176 139 127 250 242 230 131 178 130 82 94 116 130 148 154 148 149
331 328 329 329 324 315 290 228 243 266 285 255 250 255 250 249 306 190 189 156 144 163 131 65 218 216 180 166 167 204 249 275 293 7 102 124 63 65 66 85 114 144 149 146 152
329 327 326 326 320 311 303 265 243 240 262 274 239 240 246 215 216 212 180 180 151 147 162 159 231 134 140 161 176 203 200 236 179 88 62 102 43 358 18 87 129 153 169 163 165
327 327 324 322 320 315 324 121 200 206 20 266 236 232 181 161 194 197 193 175 138 187 167 224 258 200 169 194 162 198 189 129 181 97 152 59 189 257 221 111 156 167 178 177 176
324 325 322 317 303 287 253 176 244 162 336 231 194 168 171 167 144 178 190 174 156 183 133 239 196 182 158 202 151 199 123 164 98 92 107 359 83 199 138 225 219 190 187 189 188
320 321 318 311 297 299 208 204 168 52 254 319 139 146 165 180 183 130 154 192 197 157 230 226 255 202 185 68 118 143 105 54 46 82 68 223 123 270 184 207 205 185 194 190 185
317 316 311 298 287 267 186 164 73 158 305 212 94 72 232 155 165 131 141 132 161 111 256 343 311 54 114 75 32 66 61 14 16 16 201 336 57 228 231 230 201 190 190 191 186
316 316 310 298 250 182 162 100 158 218 242 322 76 15 100 360 105 160 141 180 123 100 110 165 356 162 185 134 175 159 135 145 166 184 260 354 220 252 222 276 253 218 199 191 190
321 322 319 299 194 172 170 158 188 202 205 82 87 91 98 14 109 91 150 185 192 169 155 138 259 289 30 129 126 189 76 140 103 18 68 258 297 320 350 331 214 178 184 192 193
329 323 327 290 189 177 110 208 175 200 115 72 104 32 96 339 75 62 146 196 158 190 131 210 107 344 150 82 44 107 141 90 20 131 212 279 281 230 275 249 200 184 189 193 196
334 335 343 139 146 172 169 209 203 192 133 138 154 117 135 173 125 112 116 180 206 147 114 134 111 259 64 116 168 144 146 57 111 122 163 196 257 218 217 213 204 208 202 198 198
353 46 117 35 70 94 152 185 195 242 127 125 116 132 167 189 183 133 64 206 82 165 146 172 142 152 177 294 192 61 133 129 124 206 126 147 266 15 315 264 224 212 207 209 206
336 324 32 343 75 10 319 315 197 180 187 153 145 178 115 121 106 167 165 259 35 54 144 161 289 96 27 348 22 84 79 94 104 82 185 147 257 96 33 21 351 252 227 217 210
3 22 20 61 54 61 7 323 112 54 75 97 102 92 96 57 65 175 266 52 80 105 85 87 116 152 189 202 143 109 105 106 103 115 172 223 280 353 15 6 346 338 260 231 223
27 29 1 6 348 161 5 338 317 65 67 38 56 133 138 112 34 262 206 354 43 101 67 107 102 232 64 123 97 113 140 158 158 164 157 238 195 34 347 356 4 12 12 246 234
48 13 358 349 343 26 21 334 15 26 33 18 111 87 91 115 194 173 154 93 93 28 20 359 138 126 99 91 76 81 41 71 59 34 236 134 148 23 340 3 7 15 24 33 23
34 28 359 13 10 80 276 309 358 346 27 46 23 90 76 37 23 46 57 69 69 110 200 145 137 106 225 153 119 45 313 45 110 61 333 181 46 1 336 338 336 356 22 15 10